Location: Unspecified
(29.9438°N, 0.0000°E)
Time: 02:38:17
(UTC+00:00)

Cosmos 923 - Visible Passes

Search period start: 04 April 2026 00:00
Search period end: 14 April 2026 00:00
Orbit: 774 x 790 km, 74.0° (Epoch: 29 March)

Date Brightness Start Highest point End Pass type
(mag) Time Alt. Az. Time Alt. Az. Time Alt. Az.
10 Apr 8.5 21:33:22 14° N 21:33:22 14° N 21:34:03 10° N visible
11 Apr 7.9 20:59:45 20° NNE 20:59:45 20° NNE 21:01:21 10° NNE visible
12 Apr 7.2 20:25:40 30° NE 20:25:40 30° NE 20:28:24 10° NNE visible
12 Apr 8.8 22:06:03 14° WNW 22:06:03 14° WNW 22:08:28 10° NW visible
13 Apr 6.6 19:50:34 32° E 19:50:34 32° E 19:55:10 10° NE visible
13 Apr 8.2 21:30:50 18° W 21:32:49 22° WNW 21:36:53 10° NNW visible
